Location: Unspecified
(51.3762°N, 0.0000°E)
Time: 19:26:04
(UTC+00:00)

BEESAT 3 - Visible Passes

Search period start: 20 August 2019 00:00
Search period end: 30 August 2019 00:00
Orbit: 481 x 529 km, 64.9° (Epoch: 19 August)

Date Brightness Start Highest point End Pass type
(mag) Time Alt. Az. Time Alt. Az. Time Alt. Az.
20 Aug ? 00:10:53 10° NW 00:12:41 24° WNW 00:12:41 24° WNW visible
20 Aug ? 20:37:23 10° NNW 20:39:26 14° NNE 20:41:29 10° NE visible
20 Aug ? 22:14:23 10° NNW 22:17:59 31° NE 22:18:56 28° ENE visible
20 Aug ? 23:51:43 10° NW 23:53:40 26° WNW 23:53:40 26° WNW visible
21 Aug ? 20:18:13 10° NNW 20:20:13 13° NNE 20:22:15 10° NE visible
21 Aug ? 21:55:14 10° NNW 21:58:49 30° NE 21:59:58 26° ENE visible
21 Aug ? 23:32:32 10° NW 23:34:42 28° WNW 23:34:42 28° WNW visible
22 Aug ? 19:59:03 10° NNW 20:01:02 13° NNE 20:03:00 10° NE visible
22 Aug ? 21:36:05 10° NNW 21:39:38 30° NE 21:41:02 24° ENE visible
22 Aug ? 23:13:22 10° NW 23:15:46 32° WNW 23:15:46 32° WNW visible
23 Aug ? 19:39:53 10° NNW 19:41:49 13° N 19:43:46 10° NE visible
23 Aug ? 21:16:56 10° NNW 21:20:27 29° NNE 21:22:08 21° ENE visible
23 Aug ? 22:54:12 10° NW 22:56:53 37° WNW 22:56:53 37° WNW visible
24 Aug ? 20:57:46 10° NNW 21:01:17 28° NNE 21:03:17 19° ENE visible
24 Aug ? 22:35:02 10° NW 22:38:01 44° WNW 22:38:01 44° WNW visible
25 Aug ? 20:38:37 10° NNW 20:42:05 27° NNE 20:44:27 16° E visible
25 Aug ? 22:15:51 10° NW 22:19:12 52° W 22:19:12 52° W visible
26 Aug ? 20:19:28 10° NNW 20:22:54 26° NNE 20:25:39 13° E visible
26 Aug ? 21:56:40 10° NW 22:00:24 62° WSW 22:00:24 62° WSW visible
27 Aug ? 20:00:19 10° NNW 20:03:42 26° NNE 20:06:54 11° E visible
27 Aug ? 21:37:29 10° NW 21:41:29 67° SW 21:41:39 66° SSW visible
28 Aug ? 19:41:09 10° NNW 19:44:31 25° NNE 19:47:51 10° E visible
28 Aug ? 21:18:19 10° NW 21:22:18 70° SW 21:22:56 58° S visible
29 Aug ? 19:21:59 10° NNW 19:25:19 24° NNE 19:28:37 10° E visible
29 Aug ? 20:59:08 10° NW 21:03:08 74° SW 21:04:15 45° SSE visible
29 Aug ? 22:38:57 10° W 22:39:00 10° W 22:39:00 10° W visible
